Theta_e
298 300 302 301 302 291 295 297 292 294 300 302 297 302 303 302 298 294 300 299 303 311 313 319 320 322 323 326 328 329 329 330 330 329 332 334 335 336 336 336 333 327 329 332 334 335 336 337 337 339 340 343 344 344 345 345 345 346 345 347 347 348 349
299 300 302 302 302 299 297 293 296 301 302 302 299 292 293 291 290 293 301 300 300 301 299 315 318 318 321 323 325 327 328 329 328 329 331 334 335 335 336 337 338 338 334 331 334 335 337 337 337 338 341 343 344 345 345 344 345 344 345 346 347 348 348
296 297 301 300 301 302 300 299 303 299 294 294 296 299 290 289 289 291 296 300 300 300 300 310 315 317 319 322 324 325 326 327 328 329 333 335 336 335 336 336 338 338 338 337 333 334 337 338 340 339 341 342 343 345 346 345 345 345 345 346 348 349 349
296 295 295 293 293 299 299 301 298 297 297 292 294 296 297 297 291 292 294 299 295 303 303 311 315 318 320 322 324 325 327 328 330 331 332 333 333 335 335 336 337 340 342 345 343 334 334 336 338 339 341 342 342 343 346 346 346 347 347 346 348 347 348
295 293 293 292 292 292 294 291 295 294 295 299 297 295 299 296 293 291 292 292 298 301 308 313 318 320 322 323 323 324 326 328 329 331 331 331 332 333 334 335 336 338 340 345 343 342 338 338 340 341 341 342 342 343 345 346 345 346 346 346 347 348 349
286 290 292 295 293 294 293 292 292 293 292 293 292 289 295 300 295 291 293 291 294 303 318 318 321 323 324 325 324 325 326 328 329 330 332 332 332 333 333 334 336 337 340 342 342 343 344 341 340 339 341 343 343 343 345 347 347 347 347 346 347 348 350
292 293 296 298 296 295 293 293 294 292 292 293 289 285 291 299 299 302 296 292 296 311 320 321 322 323 324 325 326 325 326 327 327 328 329 331 332 333 333 334 335 337 338 341 342 342 343 343 342 340 343 343 344 345 346 348 347 348 350 349 349 349 350
293 296 294 297 298 295 294 294 291 293 293 291 292 290 296 298 298 296 292 292 296 314 322 322 322 323 324 325 325 324 325 325 326 326 327 329 330 331 332 334 335 337 338 340 340 340 342 342 343 343 344 345 346 347 348 349 348 350 351 352 352 351 350
286 287 289 292 295 295 292 293 292 296 300 300 297 301 300 299 299 297 295 290 296 313 321 321 322 322 321 321 323 323 322 324 325 325 327 328 330 330 331 332 334 336 338 338 338 339 340 341 342 344 345 346 346 347 348 348 348 350 350 351 352 352 352
282 283 281 284 287 289 291 293 291 297 302 301 300 298 295 289 298 297 293 291 303 315 318 318 320 319 319 320 321 322 322 323 323 324 325 326 327 328 330 331 333 334 335 337 337 338 339 340 341 342 344 345 346 347 347 348 347 348 349 350 351 351 352
285 287 288 291 300 290 289 293 292 292 299 302 299 296 293 292 295 298 295 299 306 310 314 315 317 317 317 317 318 318 319 321 322 324 325 326 327 329 330 331 332 333 333 334 335 337 340 341 341 342 343 343 345 345 346 347 347 346 347 347 346 348 350
294 295 295 295 297 291 290 290 291 293 297 300 299 295 291 296 299 291 295 305 307 309 313 315 315 317 317 317 317 317 318 319 321 323 324 327 327 328 329 330 331 331 332 333 335 337 338 340 342 343 343 343 343 344 344 346 346 346 346 346 345 343 344
296 296 296 295 292 291 291 291 292 295 294 299 298 296 298 303 297 295 298 306 307 311 314 316 316 317 317 317 317 318 319 320 320 322 323 324 326 327 327 328 330 331 332 333 334 336 338 339 340 341 342 343 344 342 342 343 345 346 348 347 346 346 346
295 295 295 295 293 291 290 292 294 298 301 300 300 301 302 302 298 298 303 307 307 312 314 316 317 319 318 318 319 319 318 318 319 321 323 324 325 326 327 327 328 330 331 332 333 335 336 336 337 338 340 342 343 342 342 343 345 346 348 349 348 347 347
293 295 296 295 294 291 291 291 294 295 296 303 304 304 305 306 304 305 307 306 307 314 317 316 318 318 318 318 317 316 317 317 319 319 321 322 321 321 321 321 324 327 330 331 332 333 334 334 334 334 335 337 340 343 345 346 346 347 348 346 347 348 347
290 294 295 295 294 291 289 291 294 294 295 299 301 301 305 301 302 305 305 304 306 313 316 316 316 316 316 315 315 314 315 316 317 316 317 318 318 319 321 323 325 328 329 330 330 330 330 330 331 331 332 334 336 336 338 341 343 345 345 345 344 345 347
286 291 296 295 292 287 287 291 293 294 295 296 301 305 309 308 308 305 302 304 312 314 316 314 314 315 314 314 314 313 314 315 315 315 315 316 318 319 322 324 325 326 326 327 327 327 327 327 329 331 332 331 331 332 332 334 337 337 339 340 340 341 343
285 290 294 294 289 282 285 294 297 297 296 301 303 302 304 307 306 304 307 309 314 315 314 314 313 313 313 314 315 316 314 313 313 314 315 316 317 319 321 323 323 324 324 324 325 326 326 326 327 328 330 330 331 333 333 333 332 332 331 332 334 336 339
284 288 292 290 284 285 293 297 302 305 300 305 304 302 303 305 307 308 310 312 313 314 315 315 315 315 315 315 314 314 314 314 314 313 314 314 316 318 320 321 322 322 322 323 324 325 325 327 327 326 326 327 328 330 331 331 332 330 330 330 330 331 332
285 283 284 279 283 292 296 297 300 308 307 307 304 304 305 305 306 309 310 313 313 314 314 315 315 314 314 314 314 313 313 315 314 313 313 315 317 319 320 320 320 321 321 322 322 323 326 325 326 326 326 327 326 327 328 327 328 328 328 328 329 330 331
283 282 282 286 292 294 294 296 297 297 296 299 301 296 299 305 306 308 311 311 313 313 313 313 313 313 313 310 309 312 312 313 315 315 316 317 318 318 319 319 319 321 323 323 324 325 324 324 325 325 326 326 325 325 326 326 327 326 326 326 326 328 329
282 282 282 282 285 284 290 298 302 303 302 303 305 303 299 304 307 309 311 310 311 311 312 311 312 313 309 305 306 310 311 313 313 316 316 317 317 318 318 319 319 320 321 322 324 322 322 322 323 323 322 322 322 322 322 323 324 325 325 325 326 326 326
285 281 279 279 282 285 294 297 301 302 303 301 306 301 295 302 307 309 311 310 311 311 311 310 312 310 305 304 306 309 311 313 315 315 315 316 316 316 317 317 316 317 318 319 320 320 320 319 321 323 322 321 320 320 320 320 321 321 322 324 325 325 325
287 280 281 281 283 287 296 299 302 304 305 303 302 289 290 300 308 310 311 310 310 311 312 312 311 309 304 304 306 310 312 314 315 315 314 314 314 315 316 316 317 318 320 318 317 317 317 318 320 320 320 321 322 318 318 319 318 319 321 322 324 326 325
290 290 281 282 285 293 299 300 302 303 304 299 292 286 294 305 308 310 312 311 312 312 312 313 309 304 308 309 309 311 313 313 313 314 315 314 315 314 315 316 320 314 314 314 314 314 315 318 319 319 318 317 318 319 318 316 317 318 320 323 325 326 325
284 282 284 283 284 290 297 302 302 303 301 291 287 296 301 304 308 309 312 311 311 312 311 306 305 307 310 311 311 311 312 312 312 312 312 313 313 316 319 319 315 313 312 313 313 313 314 316 318 318 318 318 317 317 317 316 317 318 321 322 324 325 325
284 280 283 280 280 290 300 300 299 303 296 294 297 300 304 308 310 310 310 311 310 309 306 308 308 308 309 310 310 311 311 311 311 311 311 312 312 313 312 313 315 314 312 312 312 313 314 315 317 319 319 318 318 317 316 317 318 319 321 322 324 324 325
284 281 281 281 288 295 300 299 293 297 302 303 303 302 303 309 310 310 309 310 310 309 308 307 308 309 309 310 310 310 310 311 311 312 312 312 311 311 312 313 313 314 312 312 312 313 314 315 316 318 319 319 319 317 315 318 319 320 320 322 323 323 325
288 286 285 289 293 297 300 301 299 301 304 304 304 303 304 308 309 310 310 310 309 309 309 309 309 308 309 310 310 310 309 310 310 310 310 311 312 312 312 313 314 313 311 311 312 312 313 315 315 315 317 318 318 315 315 319 320 319 321 325 323 321 321
295 297 297 299 299 300 302 303 303 302 303 304 304 302 305 304 304 309 310 309 309 311 310 309 309 309 309 309 309 309 309 308 308 310 309 310 311 311 312 312 312 311 311 312 312 312 312 314 314 315 314 314 314 314 316 318 320 321 323 324 323 321 322
289 288 295 298 299 300 301 303 304 305 304 303 303 303 303 304 306 305 307 308 308 309 309 310 308 308 309 309 308 308 307 307 307 307 308 309 310 310 310 312 312 310 311 311 312 312 311 312 312 312 312 312 313 314 315 317 320 323 323 322 322 321 321
290 292 295 298 301 301 302 302 302 302 303 303 303 303 306 309 309 310 309 310 309 309 307 308 308 308 308 307 306 306 306 306 307 307 308 308 309 310 311 311 311 310 310 311 311 311 311 310 311 311 311 311 311 312 313 315 319 322 322 321 319 320 321
293 293 294 300 299 300 300 303 304 304 303 303 302 302 304 306 309 310 312 312 310 309 308 309 308 307 307 307 307 306 306 307 307 308 308 309 309 309 309 310 311 309 311 311 311 312 310 310 310 310 310 310 311 311 312 313 317 319 319 320 320 320 320
284 290 294 297 294 294 299 301 303 304 305 303 303 304 303 302 303 307 310 312 314 313 312 310 309 306 306 308 308 307 307 306 307 307 308 309 309 309 309 310 309 311 312 311 311 311 309 310 310 309 309 309 310 311 312 312 314 317 318 316 316 317 318
288 292 295 297 298 298 300 301 303 305 305 304 303 303 304 304 303 303 305 308 309 309 310 311 308 307 306 306 307 305 304 305 306 308 308 308 308 308 309 308 309 309 310 312 312 311 310 311 310 310 309 309 309 310 311 312 312 313 315 315 313 314 316
294 296 298 299 299 298 301 303 304 305 305 304 304 305 306 306 306 305 304 305 307 306 308 309 309 307 306 306 306 305 305 305 306 307 308 309 309 309 309 309 309 310 311 311 310 310 309 310 309 309 309 308 308 309 311 311 312 313 313 313 311 311 312
296 301 300 300 301 302 302 303 305 305 307 307 305 305 307 306 306 305 303 303 304 306 307 306 307 307 306 306 306 306 305 307 308 307 310 311 310 309 309 309 310 310 310 310 309 308 308 308 308 309 307 307 308 308 309 311 312 313 314 313 310 310 310
Wind_Speed
5 6 4 2 7 4 4 5 6 7 5 9 6 3 3 4 5 3 2 4 2 5 1 3 3 4 5 3 7 10 10 12 13 12 11 9 8 7 6 6 5 5 7 9 10 11 10 9 9 10 11 11 12 10 10 10 9 8 9 9 9 7 7
2 1 5 4 1 5 6 3 7 1 2 4 7 5 0 2 4 3 2 4 4 2 3 2 3 4 4 3 3 6 6 8 10 8 8 7 9 8 8 7 6 6 5 5 8 9 10 11 12 12 11 11 10 10 11 12 10 10 9 9 9 8 8
7 4 3 3 1 0 9 8 7 7 2 2 1 6 3 3 1 2 1 1 2 5 4 1 2 4 4 4 4 6 7 5 6 5 5 5 6 6 6 6 6 5 4 6 6 7 8 9 9 10 9 9 8 8 9 10 12 12 12 8 8 6 7
3 2 3 4 1 2 1 3 4 1 5 3 3 3 4 6 3 2 2 2 4 5 4 6 5 5 5 7 7 8 9 8 7 7 7 6 5 5 5 6 6 5 4 5 2 6 7 8 9 9 9 8 9 8 8 8 6 4 5 7 7 8 8
1 2 1 4 6 5 1 4 1 1 2 2 6 2 1 5 7 4 4 1 5 3 2 2 5 7 8 7 7 7 8 8 8 8 8 7 6 5 4 4 5 6 5 5 5 3 6 6 5 6 8 10 9 8 8 8 8 8 8 7 7 6 6
1 2 3 1 5 3 5 8 7 8 7 5 4 2 0 2 6 5 6 6 2 2 1 2 6 7 8 8 10 9 10 9 9 9 9 8 8 7 6 6 6 6 6 6 4 4 4 7 8 9 7 6 7 8 7 7 7 8 8 7 8 7 6
2 2 4 2 3 2 3 4 2 3 3 5 5 5 3 3 1 3 2 2 2 2 0 5 6 8 9 10 10 10 9 9 10 10 11 10 9 9 8 7 6 6 5 5 5 6 5 7 8 9 8 9 8 7 7 7 8 8 8 8 7 7 7
5 4 3 1 1 1 3 4 3 1 2 4 6 6 7 7 2 2 2 0 2 2 4 4 8 9 8 7 9 10 9 9 10 11 10 10 9 9 10 9 8 7 6 4 3 4 5 4 4 6 8 8 9 8 8 8 8 8 7 7 7 7 7
3 4 3 7 7 6 3 2 3 1 3 5 3 7 3 5 5 6 8 6 3 4 4 5 8 10 11 9 6 8 11 10 10 10 9 9 8 7 8 9 9 9 9 8 7 6 6 6 4 3 5 8 9 9 9 9 8 7 6 6 6 6 7
3 1 2 3 5 4 6 2 2 1 4 8 4 3 1 3 1 3 3 2 2 6 7 9 8 10 9 8 8 5 6 10 10 9 8 8 6 5 6 8 9 10 8 6 4 4 4 5 7 7 5 2 3 6 8 9 9 7 5 3 4 6 5
6 3 4 5 1 3 2 4 4 2 2 2 5 5 4 5 4 5 4 6 9 13 11 11 10 11 12 11 8 8 8 8 8 8 7 7 7 7 6 5 6 6 6 6 5 5 6 6 4 3 5 8 7 7 8 7 9 10 10 9 4 2 2
2 4 5 6 2 2 1 4 5 6 1 3 5 7 4 5 11 4 1 8 17 13 12 12 12 11 10 9 8 8 7 7 8 8 7 10 8 6 5 5 4 5 6 7 7 6 5 5 5 4 3 3 3 2 4 4 4 3 1 4 9 10 7
0 0 1 4 5 1 0 4 4 6 6 2 5 3 4 11 7 9 6 11 13 15 16 14 11 12 11 11 10 9 9 9 9 10 11 10 9 7 6 5 4 4 5 6 7 8 7 5 5 5 4 4 4 4 4 1 3 4 3 2 1 4 5
2 5 6 7 9 5 2 6 6 6 6 3 1 3 3 4 1 2 9 12 3 7 13 13 12 9 11 10 10 10 11 11 10 11 12 11 9 7 6 5 5 5 6 7 7 7 6 6 5 5 4 4 6 6 6 5 4 4 4 4 5 5 4
3 5 9 9 7 5 2 5 8 9 6 4 2 2 3 5 5 4 11 9 5 2 9 11 9 9 9 11 11 11 11 11 11 11 12 10 8 6 5 5 6 7 8 8 7 7 8 7 5 5 5 5 6 6 6 7 7 6 6 5 4 5 7
2 5 10 8 9 4 3 8 13 11 9 4 3 2 2 3 5 9 10 8 5 7 12 11 11 12 13 14 12 10 9 10 12 12 10 9 8 7 7 7 7 8 8 8 8 8 8 7 6 6 5 5 6 7 7 6 4 6 7 7 6 5 6
1 6 7 6 6 5 5 9 8 6 4 3 3 1 3 0 14 11 11 10 10 15 16 18 15 14 12 12 12 10 9 9 11 12 11 9 8 8 7 8 8 8 8 9 9 8 7 6 6 5 5 7 8 7 9 8 8 8 8 7 7 7 6
3 7 8 2 5 5 1 2 3 3 3 1 1 2 2 4 3 2 1 2 11 15 16 17 15 15 13 13 8 7 12 12 10 10 10 10 9 9 8 8 8 7 7 8 8 7 7 7 8 7 8 8 7 7 7 8 11 10 10 9 9 8 7
2 5 4 0 0 7 6 3 4 5 2 3 8 3 4 4 6 2 8 11 11 9 10 13 12 11 8 6 10 9 7 10 11 12 10 10 9 10 10 9 9 8 8 8 8 8 8 7 6 7 8 8 8 8 9 10 9 10 10 10 9 7 7
1 2 3 2 8 5 3 4 4 4 2 0 5 4 3 5 4 2 8 12 13 14 14 12 11 11 10 8 6 7 6 8 12 13 10 10 10 10 9 10 9 9 9 9 8 7 6 7 7 7 7 6 9 8 9 10 9 9 9 10 8 7 7
1 1 2 6 5 4 3 3 4 4 2 4 2 2 1 3 3 4 10 10 13 15 14 14 13 12 12 9 4 4 7 6 6 11 11 10 9 9 8 8 7 6 8 10 8 7 8 7 7 7 5 6 8 9 10 8 8 9 10 9 7 6 7
3 2 0 2 1 3 2 3 3 2 2 4 5 3 3 1 2 4 11 14 14 16 15 15 16 15 14 9 4 2 4 7 11 8 9 9 9 9 9 8 7 7 8 8 8 9 9 8 6 7 7 7 8 9 8 8 10 10 10 8 6 5 6
1 2 1 2 4 5 3 7 7 7 4 5 1 1 5 2 1 6 10 12 14 18 19 17 17 13 12 10 7 5 7 8 10 12 10 9 8 9 9 10 9 8 8 9 7 8 9 9 7 8 9 10 9 8 8 8 8 8 7 6 7 7 6
0 3 1 2 3 0 5 8 7 9 9 5 2 2 4 1 3 8 10 13 14 13 16 16 14 14 15 13 9 7 10 10 9 12 13 11 10 9 8 8 8 8 7 10 11 10 9 7 5 7 9 10 9 9 8 8 10 8 7 6 4 3 5
0 1 1 2 3 3 5 8 14 13 7 2 2 5 1 3 2 6 10 11 10 13 14 11 10 2 2 11 13 12 12 11 9 7 7 9 9 11 10 9 8 9 8 10 9 8 6 5 6 6 8 10 9 7 8 10 9 7 6 5 5 6 7
1 1 1 4 3 3 4 12 11 5 1 2 3 2 1 5 5 5 9 13 11 10 9 6 4 8 14 13 14 14 13 13 10 10 10 9 8 7 7 9 9 10 9 9 9 8 6 6 6 7 9 9 7 7 9 9 7 6 5 6 6 7 8
1 2 1 3 0 1 5 15 5 5 2 3 3 7 6 5 3 6 7 10 10 11 9 8 13 16 15 16 16 15 13 15 15 14 12 12 11 9 9 8 7 9 9 8 8 7 5 6 6 6 9 9 6 6 8 6 5 5 5 5 6 7 7
1 1 1 1 1 4 5 6 2 4 2 8 9 4 6 1 3 4 7 4 8 10 15 16 15 17 17 15 15 13 12 12 11 10 9 8 8 9 7 7 8 10 10 7 8 7 6 6 6 6 8 8 7 8 7 4 4 3 4 5 6 7 5
1 1 2 2 2 3 4 2 3 4 9 7 8 5 5 2 1 2 4 7 6 8 13 17 19 16 18 19 18 18 15 13 13 12 12 12 11 11 10 8 7 8 10 10 8 8 7 8 6 6 6 8 8 8 5 5 5 4 5 5 6 6 5
2 2 4 3 2 4 8 5 3 5 8 9 7 7 3 2 2 1 4 4 3 1 6 14 12 18 17 16 12 11 11 11 9 8 9 8 8 9 9 8 8 8 8 8 9 9 8 7 7 7 7 7 8 3 3 4 4 4 5 6 6 6 5
2 1 3 7 6 3 4 7 8 7 8 6 6 7 7 4 4 6 5 4 5 7 3 6 12 12 15 15 13 12 11 11 11 10 10 8 9 10 10 8 9 9 9 8 8 8 8 6 6 6 8 7 5 3 5 4 4 6 7 7 6 6 7
1 1 2 5 4 3 1 5 8 10 11 12 8 6 6 4 6 8 7 8 8 6 7 3 8 12 9 13 13 12 11 11 11 11 12 11 9 7 8 7 8 8 8 9 8 8 7 5 6 6 6 6 6 6 5 5 5 7 8 8 7 7 7
6 2 2 8 3 3 3 8 6 5 6 7 8 9 8 8 6 10 11 8 8 9 11 11 10 9 6 9 13 12 9 8 9 11 11 11 12 10 9 7 8 9 8 8 8 8 6 5 6 7 7 6 6 7 6 5 6 8 7 8 7 8 7
2 1 3 5 4 4 9 7 7 8 8 5 8 9 9 8 6 7 5 9 7 7 9 10 10 12 7 1 3 13 12 13 11 11 10 9 11 8 7 7 7 8 8 9 8 7 6 5 6 7 7 6 6 6 6 6 7 7 7 7 9 8 7
1 1 2 1 2 5 7 5 5 5 5 6 10 8 7 7 5 5 3 5 9 8 7 10 13 12 13 12 6 5 6 6 5 5 8 10 9 9 8 8 8 8 8 7 7 7 6 5 6 6 5 5 6 6 7 7 8 7 6 7 6 6 6
4 2 2 3 1 3 4 4 3 4 3 4 7 5 6 7 7 6 6 3 3 7 8 7 10 12 10 9 10 11 8 7 7 6 4 5 8 9 8 9 9 9 8 7 8 8 6 6 6 5 5 5 5 4 5 7 7 7 7 6 7 6 5
3 1 2 3 4 7 5 4 3 3 3 2 3 4 5 7 8 7 6 4 4 3 4 11 6 8 13 10 11 13 11 6 7 7 7 5 7 8 8 9 10 10 9 8 7 7 6 7 6 6 6 4 4 3 3 6 6 7 6 7 7 6 6
Wind_Direction
191 206 139 229 149 186 211 121 177 209 184 124 95 63 27 72 58 245 149 336 309 282 3 6 343 38 25 79 131 140 152 157 163 173 167 146 131 117 120 126 170 195 187 183 183 182 179 176 178 184 183 185 189 185 186 193 193 186 186 186 182 181 176
306 225 174 166 185 150 102 145 218 139 80 104 121 152 306 77 163 240 105 212 295 43 255 339 28 63 39 48 87 120 130 150 161 171 165 150 136 141 147 145 131 134 155 192 192 184 180 180 183 185 187 187 188 187 187 187 186 188 194 186 183 181 180
266 340 103 45 48 141 162 185 157 124 184 163 345 110 134 150 263 236 314 178 260 174 240 234 192 142 120 104 108 116 119 123 130 120 119 109 122 125 129 110 85 83 120 162 186 191 183 181 184 187 183 178 183 193 194 190 190 192 189 187 185 183 183
313 9 73 185 281 15 44 86 93 292 108 146 136 210 163 126 183 87 290 118 237 204 212 179 161 157 147 132 132 128 126 123 127 126 119 117 117 120 119 113 107 104 82 46 95 169 173 179 180 181 175 175 185 189 186 194 194 187 180 189 183 186 190
80 134 344 189 164 143 19 38 44 28 25 212 108 35 88 160 161 180 151 242 263 272 221 192 143 155 161 148 127 118 119 114 110 116 119 112 96 82 70 73 75 72 65 71 68 103 161 163 171 171 177 183 183 177 185 183 180 178 188 192 184 191 177
6 226 247 173 173 194 160 156 182 156 124 127 139 229 31 84 110 181 149 227 272 271 291 215 130 146 151 140 123 121 121 116 115 112 109 107 101 91 87 81 82 77 83 91 87 80 118 151 166 170 175 165 169 178 178 175 172 183 184 186 190 177 175
248 245 272 243 219 162 178 141 169 163 125 109 108 153 233 55 43 90 133 116 281 289 196 129 111 123 124 120 121 120 113 111 107 105 106 106 109 113 115 111 98 98 110 120 127 122 123 145 160 168 165 169 173 171 167 174 178 186 180 186 187 178 175
300 314 325 355 41 111 33 20 60 80 174 172 165 173 174 132 160 75 14 110 248 282 140 146 126 121 125 126 134 128 122 118 116 116 120 124 121 121 123 122 122 124 123 119 114 98 68 49 98 147 165 168 164 164 170 168 172 171 171 175 178 182 179
341 340 348 357 340 48 79 309 307 94 86 72 103 100 47 109 208 166 136 210 250 171 148 131 129 126 126 128 125 134 128 126 123 121 119 119 118 121 125 126 131 135 142 157 166 147 127 120 101 141 172 170 166 166 161 157 152 149 150 152 165 182 183
167 176 7 343 323 299 298 262 337 30 121 135 115 104 30 106 216 117 140 201 263 136 151 145 138 128 113 117 121 103 113 126 124 117 114 114 109 111 121 129 137 148 155 147 123 113 138 149 164 166 146 92 137 154 156 149 141 132 116 105 150 159 174
164 203 222 264 248 346 2 306 355 334 69 25 89 105 104 181 185 185 234 157 151 157 169 156 156 141 134 134 125 120 116 110 104 108 112 115 118 123 121 125 134 139 145 142 133 129 144 151 152 149 142 146 160 167 160 161 152 148 149 139 117 16 323
158 184 205 248 186 212 258 4 325 334 215 140 112 135 206 164 111 249 262 175 154 174 169 166 158 149 135 135 130 124 116 112 115 113 114 115 111 107 102 111 116 118 118 117 117 121 118 122 128 128 133 133 130 124 130 99 83 69 6 170 159 155 181
205 211 277 9 35 254 43 48 1 343 316 209 161 204 166 147 157 197 196 172 175 174 172 164 157 149 142 137 136 128 121 112 112 119 124 125 124 121 118 113 108 109 102 84 75 76 87 103 121 116 106 106 91 88 104 48 53 90 101 301 228 154 170
352 20 13 26 41 2 36 43 29 16 20 306 143 119 161 134 115 204 166 166 97 158 159 155 151 143 136 131 127 126 123 122 119 118 123 126 128 129 125 115 103 94 82 74 69 71 78 82 76 80 98 139 152 163 182 181 163 140 137 184 166 152 158
327 355 359 21 28 54 358 14 29 23 6 16 3 90 122 97 41 67 122 121 113 69 130 135 137 133 130 131 136 134 132 130 126 122 125 126 127 120 94 76 70 68 76 72 67 69 74 74 73 60 71 78 117 144 159 170 168 151 145 162 148 145 143
310 355 355 355 358 28 105 15 8 3 2 6 329 347 250 122 143 132 115 124 155 162 139 136 139 143 147 142 140 137 137 132 128 125 123 122 119 111 103 94 86 85 83 80 72 67 67 69 66 69 46 41 56 61 76 80 98 112 121 133 136 133 123
269 299 329 347 12 23 13 356 338 321 279 207 259 258 18 255 146 137 161 211 165 156 151 147 155 149 147 142 145 135 129 131 129 126 124 118 113 106 107 107 100 94 89 83 82 78 79 70 59 45 69 65 56 47 60 63 62 61 72 78 77 67 74
267 317 321 351 46 30 256 235 273 229 257 261 61 323 57 60 18 209 140 110 135 147 152 151 154 150 150 152 152 146 144 136 124 116 117 118 115 107 100 98 98 94 88 86 81 79 74 72 75 73 69 71 66 63 64 63 69 68 64 53 52 49 51
296 321 358 100 241 237 236 300 356 12 302 110 119 97 68 3 2 41 106 122 131 134 127 132 131 130 129 116 122 122 125 125 125 127 124 123 123 119 119 113 102 93 90 83 79 71 62 59 51 62 65 72 71 67 66 58 58 66 67 63 58 59 57
21 44 33 151 233 235 282 333 28 12 82 44 56 45 351 8 4 120 124 136 132 131 129 126 126 120 112 99 86 105 110 130 135 132 133 132 128 124 123 116 106 106 98 87 79 67 59 60 54 49 52 61 71 61 65 73 68 69 65 67 56 47 47
190 196 165 215 297 328 357 22 9 19 350 333 32 318 283 319 305 113 130 127 129 126 130 130 125 121 110 101 57 39 115 122 124 128 129 129 118 110 97 89 93 98 101 96 90 79 67 54 53 48 46 56 64 63 59 57 62 63 62 60 59 51 50
116 140 13 353 360 242 267 167 296 274 260 266 230 140 290 317 320 144 136 140 137 133 135 136 136 131 119 129 152 110 102 125 115 95 97 98 102 101 99 94 91 87 85 85 80 86 78 61 54 60 55 58 60 60 58 54 53 52 50 45 35 41 51
41 42 129 213 171 245 223 310 316 304 315 308 268 64 305 256 174 138 135 142 149 147 147 147 145 143 146 160 163 173 133 122 120 115 110 110 110 112 113 118 110 99 89 84 75 72 71 67 50 67 67 62 58 51 45 48 54 53 41 25 18 20 22
82 129 88 272 202 271 351 313 315 314 313 324 66 36 286 259 170 145 144 151 155 154 153 152 158 158 156 167 167 155 138 130 131 133 134 130 126 117 112 95 99 99 98 87 70 64 63 62 60 65 69 65 59 52 38 41 40 35 22 4 333 345 35
66 100 270 316 312 304 321 315 316 313 301 45 111 186 243 297 225 161 147 151 158 154 156 166 155 288 105 130 137 137 132 124 120 114 115 121 127 130 123 119 110 93 82 87 87 80 71 67 65 67 72 68 56 50 46 45 33 11 351 352 10 34 43
222 206 143 229 244 241 292 311 303 280 4 104 204 229 212 245 203 185 158 150 155 155 154 110 108 128 118 124 129 136 142 137 130 127 128 120 106 95 103 114 107 102 98 94 89 73 56 66 69 79 82 77 64 53 49 35 359 333 350 11 26 48 49
68 44 54 14 177 287 19 327 336 26 29 239 264 310 295 219 214 158 157 152 150 140 120 127 129 126 131 138 144 146 146 144 147 147 142 136 131 124 114 98 94 102 92 81 73 72 53 50 57 72 85 83 75 62 52 7 329 337 358 22 42 59 54
152 91 135 174 216 268 328 27 19 315 299 296 299 300 294 292 141 171 141 153 158 152 138 144 140 139 138 143 148 147 147 141 133 129 121 116 115 110 96 101 113 103 98 92 85 72 66 61 55 55 80 82 71 61 34 327 346 354 21 35 61 63 60
112 206 210 252 242 250 303 329 255 277 297 299 286 252 263 254 181 121 139 156 167 163 151 146 144 147 154 156 160 155 157 148 142 141 143 140 136 123 117 115 106 98 107 102 92 74 62 68 66 63 68 84 71 54 357 3 12 21 28 46 58 57 60
284 247 214 285 333 360 345 347 342 327 333 333 338 316 282 2 329 357 141 109 94 125 165 144 156 152 153 146 148 137 137 135 126 119 113 109 109 109 111 108 102 102 98 94 92 85 61 61 68 66 57 67 71 41 345 20 23 38 63 63 58 51 57
47 182 309 11 339 322 360 349 353 3 359 340 345 353 349 349 35 52 79 115 134 150 181 172 150 149 149 142 139 138 133 131 131 132 125 124 129 131 124 125 118 107 105 98 94 88 79 50 69 70 71 65 73 51 40 15 33 66 73 69 64 53 53
109 254 332 316 289 227 119 51 21 360 343 344 359 17 2 350 75 70 57 70 65 55 48 46 128 132 134 135 136 137 135 135 138 137 135 133 126 123 123 125 111 107 106 109 104 97 86 71 71 69 65 63 55 52 45 31 42 70 69 67 66 58 55
286 317 323 335 318 218 6 20 29 5 345 334 6 11 16 6 35 86 79 63 65 66 81 71 38 29 67 122 127 120 120 125 137 144 145 144 139 138 131 130 123 124 125 116 116 106 103 96 85 72 68 61 49 52 47 36 53 74 71 67 66 62 64
351 39 305 356 24 315 326 338 352 346 343 5 28 20 18 10 15 345 108 127 118 124 136 129 131 132 120 29 159 146 148 151 152 143 138 135 131 128 123 120 122 122 123 125 121 115 114 108 95 89 79 64 58 54 53 49 55 71 78 75 71 70 65
263 256 257 237 213 251 256 265 308 331 330 44 45 25 13 15 11 32 24 107 130 151 153 145 146 150 151 149 133 93 79 86 90 109 128 132 132 131 135 126 127 129 133 128 122 119 124 116 101 96 80 60 66 59 62 59 64 66 74 79 73 66 65
268 254 264 290 232 263 292 319 323 303 320 51 68 41 41 30 24 36 41 358 145 139 128 136 150 151 142 138 130 117 102 98 100 101 106 129 137 137 140 141 142 141 141 139 138 137 138 122 114 102 86 63 50 42 73 75 67 72 73 82 84 76 71
252 323 317 277 256 270 267 270 263 270 307 343 69 70 46 43 29 43 58 47 356 326 167 148 147 150 138 139 136 133 127 126 131 136 139 144 151 148 151 150 151 152 153 148 141 139 135 127 116 101 91 65 51 46 63 84 86 83 90 98 93 85 80